Weather History for Owosso, MI

Change the Weather History Date:

Thursday, November 7, 2013

  Actual Average (KFNT) Record (KFNT)
Temperature  
Mean Temperature 40 °F 42 °F  
Max Temperature 45 °F 51 °F 76 °F (1924)
Min Temperature 35 °F 34 °F 16 °F (1930)
Degree Days  
Heating Degree Days 24 23  
Month to date heating degree days 152  
Since 1 July heating degree days 848  
Cooling Degree Days 0 0  
Month to date cooling degree days 0  
Year to date cooling degree days 531  
Moisture  
Dew Point 30 °F    
Average Humidity 70    
Maximum Humidity 89    
Minimum Humidity 43    
Precipitation  
Precipitation 0.00 in 0.09 in 1.29 in (1996)
Month to date precipitation 0.64  
Year to date precipitation 27.42  
Snow  
Snow 0.00 in 0.10 in 2.90 in (1951)
Month to date snowfall 0.2  
Since 1 July snowfall 0.6  
Since 1 September snowfall 0.6  
Snow Depth -    
Sea Level Pressure  
Sea Level Pressure 30.08 in    
Wind  
Wind Speed 11 mph (West)    
Max Wind Speed 20 mph    
Max Gust Speed 26 mph    
Visibility 10 miles    
Events      
T = Trace of Precipitation, MM = Missing Value Source: NWS Daily Summary

Daily Weather History Graph

Daily Weather History Graph

Search for Another Location

Airport:

Trip Planner

Search our weather history database for the weather conditions in past years. The results will help you decide how hot, cold, wet, or windy it might be!

Date:

Astronomy

Nov. 07, 2013 Rise Set
Actual Time 7:19 AM EST 5:20 PM EST
Civil Twilight 6:49 AM EST 5:50 PM EST
Nautical Twilight 6:15 AM EST 6:24 PM EST
Astronomical Twilight 5:41 AM EST 6:57 PM EST
Moon 11:28 AM EST (11/7) 9:30 PM EST (11/7)
Length of Visible Light 11h 01m
Length of Day
10h 01m
Waxing Crescent, 22% of the Moon is Illuminated
Nov 7
Waxing Crescent
Nov 10
First Quarter
Nov 17
Full
Nov 25
Last Quarter
Dec 2
New

Hourly Weather History & Observations

Time (EST) Temp. Windchill Dew Point Humidity Pressure Visibility Wind Dir Wind Speed Gust Speed Precip Events Conditions
12:15 AM 42.1 °F 37.1 °F 38.3 °F 86% 29.99 in 10.0 mi WNW 8.1 mph - N/A   Overcast
12:35 AM 42.1 °F 37.7 °F 38.3 °F 86% 30.00 in 10.0 mi West 6.9 mph - N/A   Overcast
12:55 AM 41.9 °F 36.3 °F 38.3 °F 87% 30.01 in 10.0 mi WNW 9.2 mph - N/A   Overcast
1:15 AM 41.9 °F 37.5 °F 38.1 °F 86% 30.01 in 10.0 mi West 6.9 mph - N/A   Overcast
1:34 AM 41.9 °F 36.3 °F 38.3 °F 87% 30.01 in 10.0 mi West 9.2 mph - N/A   Overcast
1:55 AM 41.5 °F 36.4 °F 38.1 °F 88% 30.02 in 10.0 mi WNW 8.1 mph - N/A   Overcast
2:14 AM 41.4 °F 36.2 °F 37.9 °F 88% 30.02 in 10.0 mi WNW 8.1 mph 16.1 mph N/A   Overcast
2:35 AM 41.0 °F 35.8 °F 36.5 °F 84% 30.03 in 10.0 mi WNW 8.1 mph - N/A   Overcast
2:55 AM 41.0 °F 35.2 °F 36.1 °F 83% 30.03 in 10.0 mi WNW 9.2 mph - N/A   Overcast
3:14 AM 40.5 °F 35.8 °F 36.7 °F 86% 30.03 in 10.0 mi West 6.9 mph - N/A   Overcast
3:35 AM 40.6 °F 36.0 °F 37.0 °F 87% 30.04 in 10.0 mi West 6.9 mph - N/A   Overcast
3:55 AM 40.6 °F 34.8 °F 37.4 °F 88% 30.04 in 10.0 mi West 9.2 mph - N/A   Overcast
4:14 AM 40.1 °F 33.2 °F 36.9 °F 88% 30.04 in 7.0 mi West 11.5 mph - N/A   Overcast
4:35 AM 39.6 °F 32.5 °F 36.5 °F 89% 30.04 in 10.0 mi WNW 11.5 mph 16.1 mph N/A   Overcast
4:55 AM 39.4 °F 32.7 °F 35.6 °F 86% 30.05 in 10.0 mi West 10.4 mph 17.3 mph N/A   Overcast
5:14 AM 38.7 °F 30.5 °F 34.3 °F 84% 30.05 in 10.0 mi West 13.8 mph 20.7 mph N/A   Overcast
5:35 AM 38.3 °F 29.7 °F 33.3 °F 82% 30.06 in 10.0 mi West 15.0 mph 20.7 mph N/A   Overcast
5:54 AM 37.6 °F 28.8 °F 32.4 °F 81% 30.07 in 10.0 mi West 15.0 mph 18.4 mph N/A   Overcast
6:15 AM 37.4 °F 28.9 °F 32.0 °F 81% 30.07 in 10.0 mi West 13.8 mph 18.4 mph N/A   Overcast
6:34 AM 36.9 °F 29.6 °F 31.1 °F 80% 30.08 in 10.0 mi West 10.4 mph 18.4 mph N/A   Overcast
6:55 AM 36.5 °F 29.2 °F 30.9 °F 80% 30.09 in 10.0 mi West 10.4 mph - N/A   Mostly Cloudy
7:15 AM 36.5 °F 29.7 °F 30.0 °F 77% 30.09 in 10.0 mi West 9.2 mph - N/A   Overcast
7:34 AM 36.3 °F 30.1 °F 29.8 °F 77% 30.09 in 10.0 mi WSW 8.1 mph - N/A   Overcast
7:55 AM 36.5 °F 29.2 °F 29.3 °F 75% 30.10 in 10.0 mi West 10.4 mph - N/A   Overcast
8:15 AM 36.5 °F 30.3 °F 29.1 °F 75% 30.10 in 10.0 mi West 8.1 mph - N/A   Overcast
8:34 AM 36.9 °F 29.6 °F 29.1 °F 74% 30.10 in 10.0 mi West 10.4 mph - N/A   Overcast
8:55 AM 36.9 °F 28.2 °F 29.7 °F 75% 30.11 in 10.0 mi West 13.8 mph 17.3 mph N/A   Overcast
9:15 AM 37.4 °F 29.8 °F 30.0 °F 75% 30.12 in 10.0 mi West 11.5 mph 18.4 mph N/A   Overcast
9:35 AM 37.6 °F 29.1 °F 30.0 °F 74% 30.11 in 10.0 mi West 13.8 mph - N/A   Overcast
9:55 AM 38.3 °F 31.4 °F 29.7 °F 71% 30.11 in 10.0 mi West 10.4 mph - N/A   Overcast
10:14 AM 39.0 °F 30.6 °F 30.2 °F 71% 30.12 in 10.0 mi West 15.0 mph 21.9 mph N/A   Overcast
10:35 AM 38.5 °F 31.1 °F 29.3 °F 70% 30.12 in 10.0 mi West 11.5 mph 20.7 mph N/A   Overcast
10:54 AM 39.4 °F 30.7 °F 29.7 °F 68% 30.12 in 10.0 mi West 16.1 mph 20.7 mph N/A   Overcast
11:15 AM 40.6 °F 31.7 °F 29.1 °F 64% 30.13 in 10.0 mi West 18.4 mph - N/A   Overcast
11:35 AM 41.0 °F 33.1 °F 29.1 °F 63% 30.13 in 10.0 mi West 15.0 mph 18.4 mph N/A   Overcast
11:54 AM 41.2 °F 33.7 °F 28.2 °F 60% 30.12 in 10.0 mi West 13.8 mph - N/A   Mostly Cloudy
12:15 PM 42.4 °F 35.7 °F 27.3 °F 55% 30.12 in 10.0 mi WNW 12.7 mph 19.6 mph N/A   Mostly Cloudy
12:35 PM 43.7 °F 36.9 °F 26.2 °F 50% 30.11 in 10.0 mi West 13.8 mph 21.9 mph N/A   Mostly Cloudy
12:54 PM 41.4 °F 35.2 °F 25.7 °F 54% 30.11 in 10.0 mi West 10.4 mph 20.7 mph N/A   Mostly Cloudy
1:15 PM 42.1 °F 35.2 °F 25.3 °F 52% 30.10 in 10.0 mi WNW 12.7 mph - N/A   Mostly Cloudy
1:34 PM 44.4 °F 36.4 °F 25.5 °F 48% 30.09 in 10.0 mi West 19.6 mph - N/A   Overcast
1:55 PM 43.9 °F 36.5 °F 25.0 °F 47% 30.09 in 10.0 mi West 16.1 mph 21.9 mph N/A   Overcast
2:15 PM 45.3 °F 38.4 °F 23.9 °F 43% 30.09 in 10.0 mi West 16.1 mph 26.5 mph N/A   Overcast
2:34 PM 43.3 °F 35.8 °F 23.9 °F 46% 30.08 in 10.0 mi West 16.1 mph 21.9 mph N/A   Overcast
2:55 PM 43.9 °F 37.2 °F 24.6 °F 47% 30.07 in 10.0 mi West 13.8 mph 23.0 mph N/A   Overcast
3:15 PM 43.3 °F 36.1 °F 25.0 °F 48% 30.07 in 10.0 mi West 15.0 mph 23.0 mph N/A   Mostly Cloudy
3:34 PM 43.7 °F 36.3 °F 25.3 °F 48% 30.07 in 10.0 mi West 16.1 mph 23.0 mph N/A   Overcast
3:55 PM 43.7 °F 36.3 °F 26.2 °F 50% 30.07 in 10.0 mi West 16.1 mph 23.0 mph N/A   Overcast
4:14 PM 42.8 °F 35.1 °F 26.4 °F 52% 30.07 in 10.0 mi West 16.1 mph 25.3 mph N/A   Overcast
4:35 PM 42.4 °F 34.7 °F 27.3 °F 55% 30.07 in 10.0 mi West 16.1 mph - N/A   Overcast
4:55 PM 42.1 °F 34.5 °F 25.9 °F 53% 30.07 in 10.0 mi West 15.0 mph - N/A   Overcast
5:14 PM 41.9 °F 34.3 °F 27.0 °F 55% 30.07 in 10.0 mi West 15.0 mph 20.7 mph N/A   Overcast
5:35 PM 41.4 °F 33.0 °F 27.7 °F 58% 30.08 in 10.0 mi West 17.3 mph 20.7 mph N/A   Overcast
5:55 PM 41.2 °F 34.1 °F 28.4 °F 60% 30.08 in 10.0 mi West 12.7 mph - N/A   Overcast
6:14 PM 41.0 °F 34.3 °F 29.5 °F 64% 30.09 in 10.0 mi West 11.5 mph 16.1 mph N/A   Overcast
6:35 PM 40.8 °F 33.3 °F 29.3 °F 64% 30.09 in 10.0 mi West 13.8 mph 19.6 mph N/A   Overcast
6:55 PM 40.6 °F 34.3 °F 29.8 °F 65% 30.10 in 10.0 mi West 10.4 mph - N/A   Overcast
7:14 PM 40.3 °F 34.4 °F 30.0 °F 67% 30.10 in 10.0 mi West 9.2 mph - N/A   Overcast
7:35 PM 40.1 °F 35.3 °F 30.0 °F 67% 30.09 in 10.0 mi WNW 6.9 mph - N/A   Overcast
7:55 PM 39.7 °F 34.3 °F 30.2 °F 69% 30.09 in 10.0 mi West 8.1 mph - N/A   Overcast
8:14 PM 39.6 °F 34.0 °F 30.4 °F 70% 30.09 in 10.0 mi West 8.1 mph - N/A   Overcast
8:35 PM 39.4 °F 34.5 °F 30.6 °F 71% 30.09 in 10.0 mi West 6.9 mph - N/A   Overcast
8:54 PM 39.4 °F 33.8 °F 30.2 °F 70% 30.09 in 10.0 mi West 8.1 mph - N/A   Overcast
9:15 PM 39.2 °F 33.6 °F 30.4 °F 71% 30.09 in 10.0 mi West 8.1 mph - N/A   Overcast
9:34 PM 38.5 °F 31.6 °F 30.2 °F 72% 30.10 in 5.0 mi West 10.4 mph 18.4 mph N/A   Unknown
9:55 PM 37.4 °F 31.4 °F 31.8 °F 80% 30.10 in 10.0 mi West 8.1 mph - N/A   Overcast
10:15 PM 37.9 °F 30.9 °F 30.4 °F 74% 30.11 in 10.0 mi West 10.4 mph - N/A   Overcast
10:34 PM 37.9 °F 32.1 °F 29.8 °F 73% 30.10 in 10.0 mi West 8.1 mph - N/A   Overcast
10:55 PM 37.6 °F 30.5 °F 28.0 °F 68% 30.11 in 10.0 mi West 10.4 mph - N/A   Overcast
11:15 PM 37.0 °F 31.0 °F 27.5 °F 68% 30.11 in 10.0 mi West 8.1 mph - N/A   Overcast
11:34 PM 36.1 °F 30.6 °F 27.5 °F 71% 30.10 in 10.0 mi West 6.9 mph - N/A   Mostly Cloudy
11:55 PM 35.2 °F 31.2 °F 27.1 °F 72% 30.10 in 10.0 mi West 4.6 mph - N/A   Mostly Cloudy